Regional Weather Roundup
Issued by NWS

Home | Current Version | Previous Version | Graphics & Text | Print | Product List | Glossary On
Versions: 1 2 3 4 5 6 7 8 9 10 11 12 13 14 15 16 17 18 19 20 21 22 23 24 25 26 27 28 29 30 31 32 33 34 35 36 37 38 39 40 41 42 43 44 45 46 47 48 49 50
000
ASUS43 KDMX 092201
RWRIA

WEATHER ROUNDUP FOR IOWA
NATIONAL WEATHER SERVICE DES MOINES IA
400 PM CST FRI DEC 09 2016

NOTE: "FAIR" INDICATES FEW OR NO CLOUDS BELOW 12,000 FEET WITH NO
SIGNIFICANT WEATHER AND/OR OBSTRUCTIONS TO VISIBILITY.

* - THESE STATIONS ARE NOT NWS STATIONS...THUS NOT UNDER NWS
QUALITY CONTROL.  THEY ALSO DO NOT REPORT WEATHER SUCH
AS PRECIPITATION OR FOG.

IAZ001>003-012>014-020>022-031>034-043>046-092300-
   NORTHWEST IOWA

CITY           SKY/WX    TMP DP  RH WIND       PRES   REMARKS
CARROLL *      CLOUDY    21   9  58 W5        30.51F WCI  15
CHEROKEE *     FLURRIES  18  10  73 W3        30.51F
DENISON *      PTCLDY    19   9  63 CALM      30.49F
LE MARS *      CLOUDY    18   9  68 CALM      30.51F
ORANGE CITY *  CLOUDY    16   9  73 CALM      30.48F
SHELDON *      CLOUDY    16   7  67 CALM      30.48S
SIOUX CITY     CLOUDY    19   7  59 SE5       30.52F WCI  12
SPENCER        CLOUDY    18   6  59 W7G17     30.50S WCI   9
STORM LAKE *   FLURRIES  18   7  62 W7        30.49F WCI   8
$$

IAZ055>058-069>071-079>083-090>094-092300-
   SOUTHWEST IOWA

CITY           SKY/WX    TMP DP  RH WIND       PRES   REMARKS
ATLANTIC *     CLOUDY    21  10  63 CALM      30.52F
AUDUBON *      MOCLDY    21  10  63 W3        30.51S
CLARINDA *     CLOUDY    23  14  68 CALM      30.55F
COUNCIL BLFS * CLOUDY    21  10  63 E5        30.51F WCI  15
CRESTON *      CLOUDY    21  10  63 W3        30.53S
HARLAN  *      CLOUDY    21  10  63 CALM      30.55S
LAMONI         CLOUDY    23   9  55 W5        30.53S WCI  17
RED OAK *      CLOUDY    23  12  63 CALM      30.53F
SHENANDOAH *   CLOUDY    23  12  63 E3        30.54F
$$

IAZ047>049-059>061-072>074-084-092300-
   CENTRAL IOWA

CITY           SKY/WX    TMP DP  RH WIND       PRES   REMARKS
AMES           CLOUDY    22  12  65 W8        30.54R WCI  12
ANKENY *       CLOUDY    23   9  54 NW7       30.55S WCI  15
BOONE *        CLOUDY    21   9  58 W6        30.51S WCI  14
CHARITON *     CLOUDY    23  10  58 W6        30.53F WCI  16
DES MOINES     CLOUDY    23   9  55 VRB3      30.54F
GRINNELL*      CLEAR     22  11  64 W5        30.54S WCI  15
KNOXVILLE *    CLOUDY    23   9  54 W6        30.53F WCI  16
MARSHALLTOWN   CLEAR     21  12  68 W8        30.53S WCI  11
NEWTON *       CLOUDY    21   9  58 W3        30.53S
PELLA *        CLOUDY    22  11  62 W5        30.56S WCI  16
PERRY *        CLOUDY    23  12  63 NW6       30.53S WCI  16
$$

IAZ004>006-015-016-023>025-035-036-092300-
   NORTH CENTRAL IOWA

CITY           SKY/WX    TMP DP  RH WIND       PRES   REMARKS
ALGONA *       MOCLDY    19  10  68 W6        30.50S WCI  11
CLARION *      CLEAR     19  10  68 W9        30.51F WCI   9
ESTHERVILLE    CLOUDY    17   8  67 CALM      30.49S
FORT DODGE *   CLOUDY    19   9  63 W6        30.53S WCI  11
MASON CITY     CLOUDY    20   9  62 W8        30.52R WCI  10
WEBSTER CITY * CLOUDY    21  12  68 W8        30.50F WCI  12
IOWA FALLS *   MOCLDY    22  13  69 W7        30.52F WCI  13
$$

IAZ007>011-017>019-026>030-037>042-050>054-066-092300-
   NORTHEAST IOWA

CITY           SKY/WX    TMP DP  RH WIND       PRES   REMARKS
CEDAR RAPIDS   CLEAR     18  13  80 NW6       30.54R WCI  10
CHARLES CITY * MOCLDY    18  12  79 W3        30.51F
CLINTON *      MOCLDY    22  14  71 NW9       30.54S WCI  12
DECORAH *      CLEAR     16  10  79 W7G13     30.49S WCI   6
DUBUQUE        CLEAR     16  10  77 W5        30.51S WCI   9
MONTICELLO *   FLURRIES  19  14  79 NW6       30.53S WCI  11
OELWEIN *      CLEAR     18  12  79 W6        30.52S WCI   9
WATERLOO       PTCLDY    19  11  70 NW6       30.53S WCI  11
$$

IAZ064-065-067-068-078-092300-
   EAST CENTRAL IOWA

CITY           SKY/WX    TMP DP  RH WIND       PRES   REMARKS
DAVENPORT      CLOUDY    22  12  65 W7        30.54S WCI  13
IOWA CITY      MOCLDY    22  12  65 W9        30.57S WCI  12
MUSCATINE *    CLOUDY    23  12  63 W8        30.58R WCI  14
QUAD CITIES    PTCLDY    22  11  62 W8        30.55S WCI  12
$$

IAZ062-063-075>077-085>089-095>099-092300-
   SOUTHEAST IOWA

CITY           SKY/WX    TMP DP  RH WIND       PRES   REMARKS
BURLINGTON     PTCLDY    22  13  68 W5        30.56R WCI  16
FAIRFIELD *    CLOUDY    21  10  63 W9        30.56R WCI  11
FORT MADISON * CLOUDY    21  12  68 W3        30.57S
KEOKUK *       CLOUDY    23  14  68 W5        30.56S WCI  17
OSKALOOSA *      N/A     21  11  65 W7        30.56R WCI  12
CENTERVILLE *    N/A     25   9  50 CALM      30.55S
OTTUMWA        CLOUDY    22   9  57 NW7       30.55S WCI  13
WASHINGTON *   CLEAR     23  14  68 NW7       30.57R WCI  15
$$

ABBREVIATIONS USED IN REMARKS
   TC - TEMPERATURES IN CELSIUS
  WCI - WIND CHILL INDEX
   HX - HEAT INDEX
  VSB - VISIBILITY
$$




USA.gov is the U.S. government's official web portal to all federal, state and local government web resources and services.